Location: Bilsen
(53.7722°N, 9.8765°E)
Time: 12:28:09
(UTC+00:00)

STARLINK-1153 - Visible Passes

Search period start: 09 July 2020 00:00
Search period end: 19 July 2020 00:00
Orbit: 549 x 550 km, 53.0° (Epoch: 08 July)

Date Brightness Start Highest point End Pass type
(mag) Time Alt. Az. Time Alt. Az. Time Alt. Az.
09 Jul 4.1 01:38:35 10° W 01:42:25 37° SSW 01:46:16 10° SE visible
09 Jul 4.2 20:34:55 10° SW 20:38:44 36° SSE 20:42:34 10° E visible
09 Jul 3.5 22:13:53 10° WSW 22:18:02 76° S 22:22:12 10° E visible
09 Jul 3.5 23:53:25 10° W 23:57:34 72° SSW 00:01:43 10° ESE visible
10 Jul 4.3 01:33:06 10° W 01:36:48 32° SSW 01:40:29 10° SSE visible
10 Jul 3.5 22:08:16 10° W 22:12:25 80° S 22:16:35 10° E visible
10 Jul 3.5 23:47:48 10° W 23:51:56 66° SSW 23:56:03 10° ESE visible
11 Jul 4.5 01:27:35 10° W 01:31:05 26° SW 01:34:33 10° SSE visible
11 Jul 3.5 22:02:33 10° W 22:06:44 82° S 22:10:53 10° E visible
11 Jul 3.6 23:42:06 10° W 23:46:12 60° SSW 23:50:17 10° ESE visible
12 Jul 4.8 01:22:01 10° W 01:25:14 22° SW 01:28:27 10° SSE visible
12 Jul 3.5 21:56:47 10° W 22:00:56 82° S 22:05:06 10° E visible
12 Jul 3.7 23:36:19 10° W 23:40:22 52° SSW 23:44:25 10° SE visible
13 Jul 5.0 01:16:26 10° W 01:19:17 18° SW 01:21:11 14° S visible
13 Jul 3.5 21:50:54 10° W 21:55:04 81° S 21:59:13 10° E visible
13 Jul 3.9 23:30:27 10° W 23:34:26 46° SSW 23:37:33 15° SE visible
14 Jul 5.3 01:10:55 10° WSW 01:13:03 15° SW 01:13:03 15° SW visible
14 Jul 3.5 21:44:56 10° W 21:49:05 78° S 21:53:15 10° ESE visible
14 Jul 4.1 23:24:30 10° W 23:28:24 39° SSW 23:30:21 24° SSE visible
15 Jul 5.8 01:05:37 10° WSW 01:05:52 10° WSW 01:05:52 10° WSW visible
15 Jul 3.5 21:38:53 10° W 21:43:02 74° S 21:47:10 10° ESE visible
15 Jul 4.3 23:18:30 10° W 23:22:15 33° SSW 23:23:28 28° S visible
16 Jul 3.6 21:32:44 10° W 21:36:53 68° SSW 21:41:00 10° ESE visible
16 Jul 4.6 23:12:26 10° W 23:16:01 28° SW 23:16:42 27° SSW visible
17 Jul 3.7 21:26:31 10° W 21:30:37 62° SSW 21:34:28 12° ESE visible
17 Jul 4.8 23:06:19 10° W 23:09:39 24° SW 23:10:01 23° SSW visible
18 Jul 3.8 21:20:12 10° W 21:24:16 55° SSW 21:27:47 13° SE visible
18 Jul 5.1 23:00:11 10° W 23:03:12 20° SW 23:03:20 20° SW visible
